Overview Statistics Trail Chart Weather Telemetry Raw packets
 

This is the latest recevied weather packets stored in our database for station/object SR9NLI. If no packets are shown the sender has not sent any weather packets the latest 10 day(s).

<< 52 53 54 55 56 57 58 >>
Time Temp. Humidity Pressure Rain* Wind** Luminosity Snow
1777716944 16.67° C 100% 965 hPa - - - -
1777716881 16.67° C 100% 965.1 hPa - - - -
1777716758 16.67° C 100% 965.2 hPa - - - -
1777716635 16.67° C 100% 965.2 hPa - - - -
1777716575 16.11° C 100% 965.2 hPa - - - -
1777716513 16.11° C 100% 965.2 hPa - - - -
1777716390 16.67° C 100% 965.2 hPa - - - -
1777716267 16.67° C 100% 965.2 hPa - - - -
1777716206 16.67° C 100% 965.2 hPa - - - -
1777716143 16.67° C 100% 965.2 hPa - - - -
1777716020 16.67° C 100% 965.3 hPa - - - -
1777715897 16.67° C 100% 965.1 hPa - - - -
1777715836 16.11° C 100% 965.4 hPa - - - -
1777715774 16.11° C 100% 965.4 hPa - - - -
1777715651 16.67° C 100% 965.3 hPa - - - -
1777715529 17.22° C 100% 965.2 hPa - - - -
1777715468 16.67° C 100% 965.3 hPa - - - -
1777715406 16.67° C 100% 965.3 hPa - - - -
1777715282 17.22° C 100% 965.3 hPa - - - -
1777715159 16.67° C 100% 965.3 hPa - - - -
1777715099 16.67° C 100% 965.4 hPa - - - -
1777715036 16.67° C 100% 965.4 hPa - - - -
1777714913 16.67° C 100% 965.4 hPa - - - -
1777714791 15.56° C 100% 965.4 hPa - - - -
1777714730 16.11° C 100% 965.3 hPa - - - -

* Rain since midnight (hover to see other rain measurements)
** Current wind speed in m/s (hover to see current wind gust speed)